Time,TemperatureF,DewpointF,PressureIn,WindDirection,WindDirectionDegrees,WindSpeedMPH,WindSpeedGustMPH,Humidity,HourlyPrecipIn,Conditions,Clouds,dailyrainin,SoftwareType,DateUTC
2014-10-20 00:03:00,74.2,67.3,29.98,ENE,78,0.0,0.0,79,0.00,CLR,,0.00,WeatherDisplay:10.37,2014-10-20 04:03:00,
2014-10-20 00:08:00,73.9,67.0,29.98,ENE,78,0.0,0.0,79,0.00,CLR,,0.00,WeatherDisplay:10.37,2014-10-20 04:08:00,
2014-10-20 00:13:00,73.7,67.1,29.98,ENE,78,2.3,2.3,80,0.00,CLR,,0.00,WeatherDisplay:10.37,2014-10-20 04:13:00,
2014-10-20 00:18:00,73.6,67.0,29.98,ENE,78,0.0,0.0,80,0.00,CLR,,0.00,WeatherDisplay:10.37,2014-10-20 04:18:00,
2014-10-20 00:23:00,73.3,66.8,29.98,ENE,78,0.0,0.0,80,0.00,CLR,,0.00,WeatherDisplay:10.37,2014-10-20 04:23:00,
2014-10-20 00:28:00,73.1,66.6,29.98,ENE,78,1.2,1.2,80,0.00,CLR,,0.00,WeatherDisplay:10.37,2014-10-20 04:28:00,
2014-10-20 00:33:00,73.0,66.5,29.98,ENE,78,1.2,1.2,80,0.00,CLR,,0.00,WeatherDisplay:10.37,2014-10-20 04:33:00,
2014-10-20 00:38:00,72.9,66.4,29.98,ENE,78,0.0,0.0,80,0.00,CLR,,0.00,WeatherDisplay:10.37,2014-10-20 04:38:00,
2014-10-20 00:43:00,72.7,66.2,29.98,ENE,78,0.0,0.0,80,0.00,CLR,,0.00,WeatherDisplay:10.37,2014-10-20 04:43:00,
2014-10-20 00:48:00,72.6,65.7,29.98,ENE,78,0.0,0.0,79,0.00,CLR,,0.00,WeatherDisplay:10.37,2014-10-20 04:48:00,
2014-10-20 00:53:00,72.5,66.0,29.98,ENE,78,0.0,0.0,80,0.00,CLR,,0.00,WeatherDisplay:10.37,2014-10-20 04:53:00,
2014-10-20 00:58:00,72.5,66.3,29.98,ENE,78,0.0,0.0,81,0.00,CLR,,0.00,WeatherDisplay:10.37,2014-10-20 04:58:00,
2014-10-20 01:03:00,72.5,66.3,29.97,ENE,78,0.0,0.0,81,0.00,CLR,,0.00,WeatherDisplay:10.37,2014-10-20 05:03:00,
2014-10-20 01:08:00,72.4,66.6,29.97,ENE,78,0.0,0.0,82,0.00,CLR,,0.00,WeatherDisplay:10.37,2014-10-20 05:08:00,
2014-10-20 01:13:00,72.4,66.9,29.97,ENE,78,0.0,0.0,83,0.00,CLR,,0.00,WeatherDisplay:10.37,2014-10-20 05:13:00,
2014-10-20 01:18:00,72.3,66.8,29.97,ENE,78,0.0,0.0,83,0.00,CLR,,0.00,WeatherDisplay:10.37,2014-10-20 05:18:00,
2014-10-20 01:23:00,72.2,67.1,29.97,ENE,78,0.0,0.0,84,0.00,CLR,,0.00,WeatherDisplay:10.37,2014-10-20 05:23:00,
2014-10-20 01:28:00,72.3,67.2,29.97,ENE,78,0.0,0.0,84,0.00,CLR,,0.00,WeatherDisplay:10.37,2014-10-20 05:28:00,
2014-10-20 01:33:00,72.3,67.2,29.97,ENE,78,0.0,0.0,84,0.00,CLR,,0.00,WeatherDisplay:10.37,2014-10-20 05:33:00,
2014-10-20 01:38:00,72.2,66.4,29.96,ENE,78,0.0,0.0,82,0.00,CLR,,0.00,WeatherDisplay:10.37,2014-10-20 05:38:00,
2014-10-20 01:43:00,72.1,65.9,29.96,ENE,78,0.0,0.0,81,0.00,CLR,,0.00,WeatherDisplay:10.37,2014-10-20 05:43:00,
2014-10-20 01:48:00,72.1,66.3,29.96,ENE,78,0.0,0.0,82,0.00,CLR,,0.00,WeatherDisplay:10.37,2014-10-20 05:48:00,
2014-10-20 01:53:00,72.1,65.9,29.96,ENE,78,0.0,0.0,81,0.00,CLR,,0.00,WeatherDisplay:10.37,2014-10-20 05:53:00,
2014-10-20 01:58:00,72.0,65.8,29.96,ENE,78,0.0,0.0,81,0.00,CLR,,0.00,WeatherDisplay:10.37,2014-10-20 05:58:00,
2014-10-20 02:03:00,72.0,66.2,29.96,ENE,78,0.0,0.0,82,0.00,CLR,,0.00,WeatherDisplay:10.37,2014-10-20 06:03:00,
2014-10-20 02:08:00,72.0,66.6,29.95,ENE,78,0.0,0.0,83,0.00,CLR,,0.00,WeatherDisplay:10.37,2014-10-20 06:08:00,
2014-10-20 02:13:00,71.9,66.5,29.96,ENE,78,0.0,0.0,83,0.00,CLR,,0.00,WeatherDisplay:10.37,2014-10-20 06:13:00,
2014-10-20 02:18:00,71.9,66.8,29.96,ENE,78,0.0,0.0,84,0.00,CLR,,0.00,WeatherDisplay:10.37,2014-10-20 06:18:00,
2014-10-20 02:23:00,71.7,66.3,29.96,ENE,78,0.0,0.0,83,0.00,CLR,,0.00,WeatherDisplay:10.37,2014-10-20 06:23:00,
2014-10-20 02:28:00,71.6,66.2,29.96,ENE,78,0.0,0.0,83,0.00,CLR,,0.00,WeatherDisplay:10.37,2014-10-20 06:28:00,
2014-10-20 02:33:00,71.5,66.1,29.96,ENE,78,0.0,0.0,83,0.00,CLR,,0.00,WeatherDisplay:10.37,2014-10-20 06:33:00,
2014-10-20 02:38:00,71.5,66.4,29.95,ENE,78,0.0,0.0,84,0.00,CLR,,0.00,WeatherDisplay:10.37,2014-10-20 06:38:00,
2014-10-20 02:43:00,71.5,66.4,29.96,ENE,78,0.0,0.0,84,0.00,CLR,,0.00,WeatherDisplay:10.37,2014-10-20 06:43:00,
2014-10-20 02:48:00,71.4,66.3,29.95,ENE,78,0.0,0.0,84,0.00,CLR,,0.00,WeatherDisplay:10.37,2014-10-20 06:48:00,
2014-10-20 02:53:00,71.3,66.6,29.95,ENE,78,0.0,0.0,85,0.00,CLR,,0.00,WeatherDisplay:10.37,2014-10-20 06:53:00,
2014-10-20 02:58:00,71.2,66.5,29.95,ENE,78,1.2,0.0,85,0.00,CLR,,0.00,WeatherDisplay:10.37,2014-10-20 06:58:00,
2014-10-20 03:03:00,71.0,66.3,29.95,ENE,78,0.0,0.0,85,0.00,CLR,,0.00,WeatherDisplay:10.37,2014-10-20 07:03:00,
2014-10-20 03:08:00,71.0,66.3,29.95,ENE,78,1.2,0.0,85,0.00,CLR,,0.00,WeatherDisplay:10.37,2014-10-20 07:08:00,
2014-10-20 03:13:00,71.0,65.9,29.95,ENE,78,0.0,0.0,84,0.00,CLR,,0.00,WeatherDisplay:10.37,2014-10-20 07:13:00,
2014-10-20 03:18:00,71.1,66.0,29.95,ENE,78,1.2,0.0,84,0.00,CLR,,0.00,WeatherDisplay:10.37,2014-10-20 07:18:00,
2014-10-20 03:23:00,71.2,66.1,29.94,ENE,78,0.0,0.0,84,0.00,CLR,,0.00,WeatherDisplay:10.37,2014-10-20 07:23:00,
2014-10-20 03:28:00,71.2,66.5,29.94,ENE,78,0.0,0.0,85,0.00,CLR,,0.00,WeatherDisplay:10.37,2014-10-20 07:28:00,
2014-10-20 03:33:00,71.1,66.7,29.94,ENE,78,0.0,0.0,86,0.00,CLR,,0.00,WeatherDisplay:10.37,2014-10-20 07:33:00,
2014-10-20 03:38:00,71.0,66.6,29.94,ENE,78,0.0,0.0,86,0.00,CLR,,0.00,WeatherDisplay:10.37,2014-10-20 07:38:00,
2014-10-20 03:43:00,71.0,66.6,29.94,ENE,78,0.0,0.0,86,0.00,CLR,,0.00,WeatherDisplay:10.37,2014-10-20 07:43:00,
2014-10-20 03:48:00,71.0,66.9,29.94,ENE,78,0.0,0.0,87,0.00,CLR,,0.00,WeatherDisplay:10.37,2014-10-20 07:48:00,
2014-10-20 03:53:00,70.8,66.4,29.94,ENE,78,0.0,0.0,86,0.00,CLR,,0.00,WeatherDisplay:10.37,2014-10-20 07:53:00,
2014-10-20 03:58:00,70.7,66.6,29.94,ENE,78,0.0,0.0,87,0.00,CLR,,0.00,WeatherDisplay:10.37,2014-10-20 07:58:00,
2014-10-20 04:03:00,70.6,66.5,29.94,ENE,78,0.0,0.0,87,0.00,CLR,,0.00,WeatherDisplay:10.37,2014-10-20 08:03:00,
2014-10-20 04:08:00,70.4,66.3,29.94,ENE,78,0.0,0.0,87,0.00,CLR,,0.00,WeatherDisplay:10.37,2014-10-20 08:08:00,
2014-10-20 04:13:00,70.4,66.7,29.94,ENE,78,0.0,0.0,88,0.00,CLR,,0.00,WeatherDisplay:10.37,2014-10-20 08:13:00,
2014-10-20 04:18:00,70.4,66.7,29.94,ENE,78,0.0,0.0,88,0.00,CLR,,0.00,WeatherDisplay:10.37,2014-10-20 08:18:00,
2014-10-20 04:23:00,70.5,67.1,29.94,ENE,78,0.0,0.0,89,0.00,CLR,,0.00,WeatherDisplay:10.37,2014-10-20 08:23:00,
2014-10-20 04:28:00,70.4,67.0,29.94,ENE,78,0.0,0.0,89,0.00,CLR,,0.00,WeatherDisplay:10.37,2014-10-20 08:28:00,
2014-10-20 04:33:00,70.4,66.7,29.94,ENE,78,2.3,2.3,88,0.00,CLR,,0.00,WeatherDisplay:10.37,2014-10-20 08:33:00,
2014-10-20 04:38:00,70.4,66.7,29.94,ENE,78,0.0,0.0,88,0.00,CLR,,0.00,WeatherDisplay:10.37,2014-10-20 08:38:00,
2014-10-20 04:44:00,70.4,66.7,29.94,ENE,78,0.0,0.0,88,0.00,CLR,,0.00,WeatherDisplay:10.37,2014-10-20 08:44:00,
2014-10-20 04:49:00,70.3,66.6,29.94,ENE,78,0.0,0.0,88,0.00,CLR,,0.00,WeatherDisplay:10.37,2014-10-20 08:49:00,
2014-10-20 04:54:00,70.2,66.8,29.94,ENE,78,0.0,0.0,89,0.00,CLR,,0.00,WeatherDisplay:10.37,2014-10-20 08:54:00,
2014-10-20 04:59:00,70.2,66.8,29.94,ENE,78,0.0,0.0,89,0.00,CLR,,0.00,WeatherDisplay:10.37,2014-10-20 08:59:00,
2014-10-20 05:04:00,70.3,67.2,29.94,ENE,78,0.0,0.0,90,0.00,CLR,,0.00,WeatherDisplay:10.37,2014-10-20 09:04:00,
2014-10-20 05:09:00,70.2,66.8,29.94,ENE,78,0.0,0.0,89,0.00,CLR,,0.00,WeatherDisplay:10.37,2014-10-20 09:09:00,
2014-10-20 05:14:00,70.2,67.1,29.94,ENE,78,0.0,0.0,90,0.00,CLR,,0.00,WeatherDisplay:10.37,2014-10-20 09:14:00,
2014-10-20 05:19:00,70.1,67.0,29.94,ENE,78,0.0,0.0,90,0.00,CLR,,0.00,WeatherDisplay:10.37,2014-10-20 09:19:00,
2014-10-20 05:24:00,70.1,67.3,29.94,ENE,78,0.0,0.0,91,0.00,CLR,,0.00,WeatherDisplay:10.37,2014-10-20 09:24:00,
2014-10-20 05:29:00,70.1,67.3,29.94,ENE,78,0.0,0.0,91,0.00,CLR,,0.00,WeatherDisplay:10.37,2014-10-20 09:29:00,
2014-10-20 05:34:00,70.3,67.9,29.94,ENE,78,0.0,0.0,92,0.00,CLR,,0.00,WeatherDisplay:10.37,2014-10-20 09:34:00,
2014-10-20 05:39:00,70.4,68.0,29.94,ENE,78,0.0,0.0,92,0.00,CLR,,0.00,WeatherDisplay:10.37,2014-10-20 09:39:00,
2014-10-20 05:44:00,70.5,68.1,29.94,ENE,78,0.0,0.0,92,0.00,CLR,,0.00,WeatherDisplay:10.37,2014-10-20 09:44:00,
2014-10-20 05:49:00,70.3,67.9,29.94,ENE,78,0.0,0.0,92,0.00,CLR,,0.00,WeatherDisplay:10.37,2014-10-20 09:49:00,
2014-10-20 05:54:00,70.1,67.3,29.94,ENE,78,0.0,0.0,91,0.00,CLR,,0.00,WeatherDisplay:10.37,2014-10-20 09:54:00,
2014-10-20 05:59:00,69.8,67.1,29.94,ENE,78,0.0,0.0,91,0.00,CLR,,0.00,WeatherDisplay:10.37,2014-10-20 09:59:00,
2014-10-20 06:04:00,69.6,66.9,29.94,ENE,78,0.0,0.0,91,0.00,CLR,,0.00,WeatherDisplay:10.37,2014-10-20 10:04:00,
2014-10-20 06:09:00,69.5,66.8,29.94,ENE,78,0.0,0.0,91,0.00,CLR,,0.00,WeatherDisplay:10.37,2014-10-20 10:09:00,
2014-10-20 06:14:00,69.4,66.7,29.94,ENE,78,0.0,0.0,91,0.00,CLR,,0.00,WeatherDisplay:10.37,2014-10-20 10:14:00,
2014-10-20 06:19:00,69.2,66.8,29.95,ENE,78,0.0,0.0,92,0.00,CLR,,0.00,WeatherDisplay:10.37,2014-10-20 10:19:00,
2014-10-20 06:24:00,69.2,66.8,29.95,ENE,78,0.0,0.0,92,0.00,CLR,,0.00,WeatherDisplay:10.37,2014-10-20 10:24:00,
2014-10-20 06:29:00,69.2,66.8,29.95,ENE,78,0.0,0.0,92,0.00,CLR,,0.00,WeatherDisplay:10.37,2014-10-20 10:29:00,
2014-10-20 06:34:00,69.2,66.8,29.95,ENE,78,0.0,0.0,92,0.00,CLR,,0.00,WeatherDisplay:10.37,2014-10-20 10:34:00,
2014-10-20 06:39:00,69.2,66.8,29.95,ENE,78,0.0,0.0,92,0.00,CLR,,0.00,WeatherDisplay:10.37,2014-10-20 10:39:00,
2014-10-20 06:44:00,69.3,66.9,29.95,ENE,78,0.0,0.0,92,0.00,CLR,,0.00,WeatherDisplay:10.37,2014-10-20 10:44:00,
2014-10-20 06:49:00,69.3,66.9,29.95,ENE,78,0.0,0.0,92,0.00,CLR,,0.00,WeatherDisplay:10.37,2014-10-20 10:49:00,
2014-10-20 06:54:00,69.4,66.7,29.95,ENE,78,0.0,0.0,91,0.00,CLR,,0.00,WeatherDisplay:10.37,2014-10-20 10:54:00,
2014-10-20 06:59:00,69.4,67.0,29.95,ENE,78,0.0,0.0,92,0.00,CLR,,0.00,WeatherDisplay:10.37,2014-10-20 10:59:00,
2014-10-20 07:04:00,69.5,67.1,29.96,ENE,78,0.0,0.0,92,0.00,CLR,,0.00,WeatherDisplay:10.37,2014-10-20 11:04:00,
2014-10-20 07:09:00,69.5,67.1,29.96,ENE,78,0.0,0.0,92,0.00,CLR,,0.00,WeatherDisplay:10.37,2014-10-20 11:09:00,
2014-10-20 07:14:00,69.6,67.2,29.96,ENE,78,0.0,0.0,92,0.00,CLR,,0.00,WeatherDisplay:10.37,2014-10-20 11:14:00,
2014-10-20 07:19:00,69.6,67.2,29.96,ENE,78,0.0,0.0,92,0.00,CLR,,0.00,WeatherDisplay:10.37,2014-10-20 11:19:00,
2014-10-20 07:24:00,69.7,67.6,29.96,ENE,78,0.0,0.0,93,0.00,CLR,,0.00,WeatherDisplay:10.37,2014-10-20 11:24:00,
2014-10-20 07:29:00,69.7,67.6,29.96,ENE,78,0.0,0.0,93,0.00,CLR,,0.00,WeatherDisplay:10.37,2014-10-20 11:29:00,
2014-10-20 07:34:00,69.7,67.6,29.97,ENE,78,1.2,0.0,93,0.00,CLR,,0.00,WeatherDisplay:10.37,2014-10-20 11:34:00,
2014-10-20 07:39:00,69.7,67.6,29.97,ENE,78,0.0,0.0,93,0.00,CLR,,0.00,WeatherDisplay:10.37,2014-10-20 11:39:00,
2014-10-20 07:44:00,69.7,67.6,29.97,ENE,78,1.2,0.0,93,0.00,CLR,,0.00,WeatherDisplay:10.37,2014-10-20 11:44:00,
2014-10-20 07:49:00,69.8,67.7,29.97,ENE,78,2.3,2.3,93,0.00,CLR,,0.00,WeatherDisplay:10.37,2014-10-20 11:49:00,
2014-10-20 07:54:00,70.0,67.9,29.97,ENE,78,0.0,0.0,93,0.00,CLR,,0.00,WeatherDisplay:10.37,2014-10-20 11:54:00,
2014-10-20 07:59:00,70.4,68.3,29.97,ENE,78,0.0,0.0,93,0.00,CLR,,0.00,WeatherDisplay:10.37,2014-10-20 11:59:00,
2014-10-20 08:04:00,70.8,68.4,29.98,ENE,78,1.0,0.0,92,0.00,CLR,,0.00,WeatherDisplay:10.37,2014-10-20 12:04:00,
2014-10-20 08:09:00,71.1,68.3,29.98,ENE,78,1.2,1.2,91,0.00,CLR,,0.00,WeatherDisplay:10.37,2014-10-20 12:09:00,
2014-10-20 08:14:00,71.2,68.4,29.98,ENE,78,0.0,0.0,91,0.00,CLR,,0.00,WeatherDisplay:10.37,2014-10-20 12:14:00,
2014-10-20 08:19:00,71.2,68.1,29.98,ENE,78,0.0,0.0,90,0.00,CLR,,0.00,WeatherDisplay:10.37,2014-10-20 12:19:00,
2014-10-20 08:24:00,71.3,68.2,29.98,ENE,78,0.0,0.0,90,0.00,CLR,,0.00,WeatherDisplay:10.37,2014-10-20 12:24:00,
2014-10-20 08:29:00,71.5,68.7,29.98,ENE,78,3.5,3.5,91,0.00,CLR,,0.00,WeatherDisplay:10.37,2014-10-20 12:29:00,
2014-10-20 08:34:00,71.7,69.3,29.98,ENE,78,0.0,0.0,92,0.00,CLR,,0.00,WeatherDisplay:10.37,2014-10-20 12:34:00,
2014-10-20 08:39:00,72.3,69.8,29.99,ENE,78,0.0,0.0,92,0.00,CLR,,0.00,WeatherDisplay:10.37,2014-10-20 12:39:00,
2014-10-20 08:44:00,72.6,69.8,29.99,ENE,78,1.2,1.2,91,0.00,CLR,,0.00,WeatherDisplay:10.37,2014-10-20 12:44:00,
2014-10-20 08:49:00,72.8,69.7,29.99,ENE,78,0.0,0.0,90,0.00,CLR,,0.00,WeatherDisplay:10.37,2014-10-20 12:49:00,
2014-10-20 08:54:00,73.0,69.6,29.99,ENE,78,3.0,3.0,89,0.00,CLR,,0.00,WeatherDisplay:10.37,2014-10-20 12:54:00,
2014-10-20 08:59:00,73.3,69.9,29.99,NW,322,3.0,3.0,89,0.00,CLR,,0.00,WeatherDisplay:10.37,2014-10-20 12:59:00,
2014-10-20 09:04:00,73.6,69.8,29.99,NW,320,0.0,0.0,88,0.00,CLR,,0.00,WeatherDisplay:10.37,2014-10-20 13:04:00,
2014-10-20 09:09:00,74.0,70.2,29.99,NW,320,0.0,0.0,88,0.00,CLR,,0.00,WeatherDisplay:10.37,2014-10-20 13:09:00,
2014-10-20 09:14:00,74.4,70.6,29.99,NW,320,2.3,2.3,88,0.00,CLR,,0.00,WeatherDisplay:10.37,2014-10-20 13:14:00,
2014-10-20 09:19:00,74.7,70.2,29.99,NW,320,0.0,0.0,86,0.00,CLR,,0.00,WeatherDisplay:10.37,2014-10-20 13:19:00,
2014-10-20 09:24:00,75.3,70.8,29.99,NW,320,0.0,0.0,86,0.00,CLR,,0.00,WeatherDisplay:10.37,2014-10-20 13:24:00,
2014-10-20 09:29:00,76.3,71.5,29.99,NW,320,0.0,0.0,85,0.00,CLR,,0.00,WeatherDisplay:10.37,2014-10-20 13:29:00,
2014-10-20 09:34:00,77.3,71.4,29.99,NW,320,2.3,2.3,82,0.00,CLR,,0.00,WeatherDisplay:10.37,2014-10-20 13:34:00,
2014-10-20 09:39:00,78.1,71.8,29.99,NW,320,0.0,0.1,81,0.00,CLR,,0.00,WeatherDisplay:10.37,2014-10-20 13:39:00,
2014-10-20 09:44:00,79.0,71.9,29.99,NW,320,1.2,1.2,79,0.00,CLR,,0.00,WeatherDisplay:10.37,2014-10-20 13:44:00,
2014-10-20 09:49:00,79.8,71.9,29.99,NW,320,0.0,0.0,77,0.00,CLR,,0.00,WeatherDisplay:10.37,2014-10-20 13:49:00,
2014-10-20 09:54:00,80.4,72.1,29.99,NW,320,0.0,0.1,76,0.00,CLR,,0.00,WeatherDisplay:10.37,2014-10-20 13:54:00,
2014-10-20 09:59:00,81.1,72.0,29.99,NW,320,1.0,1.0,74,0.00,CLR,,0.00,WeatherDisplay:10.37,2014-10-20 13:59:00,
2014-10-20 10:04:00,81.5,71.2,29.99,NW,320,0.0,0.0,71,0.00,CLR,,0.00,WeatherDisplay:10.37,2014-10-20 14:04:00,
2014-10-20 10:09:00,81.5,71.6,30.00,NW,320,0.0,0.0,72,0.00,CLR,,0.00,WeatherDisplay:10.37,2014-10-20 14:09:00,
2014-10-20 10:15:00,81.7,70.1,29.99,NW,320,0.0,0.0,68,0.00,CLR,,0.00,WeatherDisplay:10.37,2014-10-20 14:15:00,
2014-10-20 10:20:00,82.2,70.6,29.99,NW,320,0.0,0.0,68,0.00,CLR,,0.00,WeatherDisplay:10.37,2014-10-20 14:20:00,
2014-10-20 10:25:00,82.8,70.7,29.99,North,9,1.2,1.2,67,0.00,CLR,,0.00,WeatherDisplay:10.37,2014-10-20 14:25:00,
2014-10-20 10:30:00,82.8,68.4,29.99,SSE,156,6.9,6.9,62,0.00,CLR,,0.00,WeatherDisplay:10.37,2014-10-20 14:30:00,
2014-10-20 10:35:00,82.7,70.2,29.99,SE,126,4.6,4.6,66,0.00,CLR,,0.00,WeatherDisplay:10.37,2014-10-20 14:35:00,
2014-10-20 10:40:00,83.0,68.2,29.99,SE,136,3.5,3.5,61,0.00,CLR,,0.00,WeatherDisplay:10.37,2014-10-20 14:40:00,
2014-10-20 10:45:00,83.2,65.9,29.99,East,100,6.9,6.9,56,0.00,CLR,,0.00,WeatherDisplay:10.37,2014-10-20 14:45:00,
2014-10-20 10:50:00,82.6,64.8,30.00,SSE,153,6.9,6.9,55,0.00,CLR,,0.00,WeatherDisplay:10.37,2014-10-20 14:50:00,
2014-10-20 10:55:00,82.1,65.4,30.00,SSE,157,3.5,3.5,57,0.00,CLR,,0.00,WeatherDisplay:10.37,2014-10-20 14:55:00,
2014-10-20 11:00:00,82.1,65.9,30.00,ESE,104,4.6,4.6,58,0.00,CLR,,0.00,WeatherDisplay:10.37,2014-10-20 15:00:00,
2014-10-20 11:05:00,82.6,66.3,29.99,ENE,64,10.4,10.4,58,0.00,CLR,,0.00,WeatherDisplay:10.37,2014-10-20 15:05:00,
2014-10-20 11:10:00,83.3,66.0,29.99,ESE,117,7.0,7.0,56,0.00,CLR,,0.00,WeatherDisplay:10.37,2014-10-20 15:10:00,
2014-10-20 11:15:00,83.2,65.4,29.99,ENE,74,6.9,6.9,55,0.00,CLR,,0.00,WeatherDisplay:10.37,2014-10-20 15:15:00,
2014-10-20 11:20:00,83.5,65.6,29.99,SSE,148,11.5,11.5,55,0.00,CLR,,0.00,WeatherDisplay:10.37,2014-10-20 15:20:00,
2014-10-20 11:25:00,83.8,65.4,29.99,ENE,59,3.5,3.5,54,0.00,CLR,,0.00,WeatherDisplay:10.37,2014-10-20 15:25:00,
2014-10-20 11:30:00,83.9,64.9,29.99,ESE,104,4.6,4.6,53,0.00,CLR,,0.00,WeatherDisplay:10.37,2014-10-20 15:30:00,
2014-10-20 11:35:00,83.2,65.9,29.99,East,93,3.5,3.5,56,0.00,CLR,,0.00,WeatherDisplay:10.37,2014-10-20 15:35:00,
2014-10-20 11:40:00,83.4,66.1,29.99,East,92,5.8,5.8,56,0.00,CLR,,0.00,WeatherDisplay:10.37,2014-10-20 15:40:00,
2014-10-20 11:45:00,83.8,66.4,29.99,NNE,32,3.5,3.5,56,0.00,CLR,,0.00,WeatherDisplay:10.37,2014-10-20 15:45:00,
2014-10-20 11:50:00,84.1,66.2,29.98,ENE,78,5.8,5.8,55,0.00,CLR,,0.00,WeatherDisplay:10.37,2014-10-20 15:50:00,
2014-10-20 11:55:00,84.3,65.8,29.98,East,99,10.4,10.4,54,0.00,CLR,,0.00,WeatherDisplay:10.37,2014-10-20 15:55:00,
2014-10-20 12:00:00,83.9,65.5,29.98,ENE,61,4.6,4.6,54,0.00,CLR,,0.00,WeatherDisplay:10.37,2014-10-20 16:00:00,
2014-10-20 12:05:00,84.2,65.2,29.98,NE,48,4.6,4.6,53,0.00,CLR,,0.00,WeatherDisplay:10.37,2014-10-20 16:05:00,
2014-10-20 12:10:00,84.7,65.7,29.98,SE,138,9.2,9.2,53,0.00,CLR,,0.00,WeatherDisplay:10.37,2014-10-20 16:10:00,
2014-10-20 12:15:00,84.3,65.8,29.97,East,84,10.4,10.4,54,0.00,CLR,,0.00,WeatherDisplay:10.37,2014-10-20 16:15:00,
2014-10-20 12:20:00,84.0,65.6,29.97,East,83,7.0,7.0,54,0.00,CLR,,0.00,WeatherDisplay:10.37,2014-10-20 16:20:00,
2014-10-20 12:25:00,84.1,65.1,29.97,ESE,118,8.1,8.1,53,0.00,CLR,,0.00,WeatherDisplay:10.37,2014-10-20 16:25:00,
2014-10-20 12:30:00,84.3,64.8,29.97,SSW,209,4.6,4.6,52,0.00,CLR,,0.00,WeatherDisplay:10.37,2014-10-20 16:30:00,
2014-10-20 12:35:00,84.3,65.8,29.97,SE,131,6.9,6.9,54,0.00,CLR,,0.00,WeatherDisplay:10.37,2014-10-20 16:35:00,
2014-10-20 12:40:00,84.1,65.7,29.96,SE,144,5.8,5.8,54,0.00,CLR,,0.00,WeatherDisplay:10.37,2014-10-20 16:40:00,
2014-10-20 12:45:00,84.4,64.9,29.96,SE,130,3.5,3.5,52,0.00,CLR,,0.00,WeatherDisplay:10.37,2014-10-20 16:45:00,
2014-10-20 12:50:00,84.5,65.5,29.96,SE,130,4.0,4.0,53,0.00,CLR,,0.00,WeatherDisplay:10.37,2014-10-20 16:50:00,
2014-10-20 12:55:00,84.2,64.1,29.96,ENE,67,11.5,11.5,51,0.00,CLR,,0.00,WeatherDisplay:10.37,2014-10-20 16:55:00,
2014-10-20 13:00:00,84.0,64.5,29.95,ENE,67,11.5,11.5,52,0.00,CLR,,0.00,WeatherDisplay:10.37,2014-10-20 17:00:00,
2014-10-20 13:05:00,83.6,64.7,29.96,ESE,107,11.5,11.5,53,0.00,CLR,,0.00,WeatherDisplay:10.37,2014-10-20 17:05:00,
2014-10-20 13:10:00,83.5,65.1,29.95,ESE,116,9.2,9.2,54,0.00,CLR,,0.00,WeatherDisplay:10.37,2014-10-20 17:10:00,
2014-10-20 13:15:00,83.6,64.7,29.95,ESE,119,6.9,6.9,53,0.00,CLR,,0.00,WeatherDisplay:10.37,2014-10-20 17:15:00,
2014-10-20 13:20:00,83.9,65.5,29.94,ESE,119,6.9,6.9,54,0.00,CLR,,0.00,WeatherDisplay:10.37,2014-10-20 17:20:00,
2014-10-20 13:25:00,83.8,65.4,29.94,ESE,115,3.5,3.5,54,0.00,CLR,,0.00,WeatherDisplay:10.37,2014-10-20 17:25:00,
2014-10-20 13:30:00,83.6,64.7,29.94,SSE,150,10.4,10.4,53,0.00,CLR,,0.00,WeatherDisplay:10.37,2014-10-20 17:30:00,
2014-10-20 13:35:00,83.4,63.9,29.94,SSE,150,9.2,9.2,52,0.00,CLR,,0.00,WeatherDisplay:10.37,2014-10-20 17:35:00,
2014-10-20 13:40:00,83.4,64.5,29.94,ESE,119,8.1,8.1,53,0.00,CLR,,0.00,WeatherDisplay:10.37,2014-10-20 17:40:00,
2014-10-20 13:45:00,83.5,65.1,29.94,East,99,5.8,5.8,54,0.00,CLR,,0.00,WeatherDisplay:10.37,2014-10-20 17:45:00,
2014-10-20 13:50:00,83.2,64.8,29.93,ENE,70,9.2,9.2,54,0.00,CLR,,0.00,WeatherDisplay:10.37,2014-10-20 17:50:00,
2014-10-20 13:55:00,83.5,65.1,29.93,East,91,6.9,6.9,54,0.00,CLR,,0.00,WeatherDisplay:10.37,2014-10-20 17:55:00,
2014-10-20 14:00:00,84.2,66.3,29.93,East,80,5.8,5.8,55,0.00,CLR,,0.00,WeatherDisplay:10.37,2014-10-20 18:00:00,
2014-10-20 14:05:00,84.2,65.8,29.93,ENE,70,11.5,11.5,54,0.00,CLR,,0.00,WeatherDisplay:10.37,2014-10-20 18:05:00,
2014-10-20 14:10:00,84.0,65.0,29.93,SE,128,11.5,11.5,53,0.00,CLR,,0.00,WeatherDisplay:10.37,2014-10-20 18:10:00,
2014-10-20 14:15:00,83.7,65.8,29.93,East,83,4.6,4.6,55,0.00,CLR,,0.00,WeatherDisplay:10.37,2014-10-20 18:15:00,
2014-10-20 14:20:00,84.1,66.2,29.92,ENE,71,7.0,7.0,55,0.00,CLR,,0.00,WeatherDisplay:10.37,2014-10-20 18:20:00,
2014-10-20 14:25:00,84.1,66.2,29.92,ESE,103,6.0,6.0,55,0.00,CLR,,0.00,WeatherDisplay:10.37,2014-10-20 18:25:00,
2014-10-20 14:30:00,83.9,65.5,29.92,ESE,113,11.5,11.5,54,0.00,CLR,,0.00,WeatherDisplay:10.37,2014-10-20 18:30:00,
2014-10-20 14:35:00,83.7,66.3,29.92,East,98,4.6,4.6,56,0.00,CLR,,0.00,WeatherDisplay:10.37,2014-10-20 18:35:00,
2014-10-20 14:40:00,83.4,65.5,29.92,East,82,6.9,6.9,55,0.00,CLR,,0.00,WeatherDisplay:10.37,2014-10-20 18:40:00,
2014-10-20 14:45:00,82.9,65.1,29.92,SE,138,3.5,3.5,55,0.00,CLR,,0.00,WeatherDisplay:10.37,2014-10-20 18:45:00,
2014-10-20 14:50:00,83.3,64.9,29.92,ESE,107,10.4,10.4,54,0.00,CLR,,0.00,WeatherDisplay:10.37,2014-10-20 18:50:00,
2014-10-20 14:55:00,83.2,64.8,29.92,East,88,9.2,9.2,54,0.00,CLR,,0.00,WeatherDisplay:10.37,2014-10-20 18:55:00,
2014-10-20 15:00:00,83.4,65.5,29.92,SE,135,10.4,10.4,55,0.00,CLR,,0.00,WeatherDisplay:10.37,2014-10-20 19:00:00,
2014-10-20 15:05:00,82.9,65.1,29.92,ESE,119,4.6,4.6,55,0.00,CLR,,0.00,WeatherDisplay:10.37,2014-10-20 19:05:00,
2014-10-20 15:10:00,83.0,65.2,29.91,East,95,3.5,4.0,55,0.00,CLR,,0.00,WeatherDisplay:10.37,2014-10-20 19:10:00,
2014-10-20 15:15:00,83.0,65.7,29.91,East,95,5.8,5.8,56,0.00,CLR,,0.00,WeatherDisplay:10.37,2014-10-20 19:15:00,
2014-10-20 15:20:00,82.8,64.5,29.91,East,94,6.9,6.9,54,0.00,CLR,,0.00,WeatherDisplay:10.37,2014-10-20 19:20:00,
2014-10-20 15:25:00,82.7,64.4,29.91,ENE,58,5.8,5.8,54,0.00,CLR,,0.00,WeatherDisplay:10.37,2014-10-20 19:25:00,
2014-10-20 15:30:00,83.0,65.2,29.91,SE,135,6.9,6.9,55,0.00,CLR,,0.00,WeatherDisplay:10.37,2014-10-20 19:30:00,
2014-10-20 15:35:00,83.1,63.1,29.91,SE,144,10.4,10.4,51,0.00,CLR,,0.00,WeatherDisplay:10.37,2014-10-20 19:35:00,
2014-10-20 15:40:00,83.3,63.8,29.91,ENE,76,8.1,8.1,52,0.00,CLR,,0.00,WeatherDisplay:10.37,2014-10-20 19:40:00,
2014-10-20 15:45:00,83.3,63.8,29.91,ENE,73,9.2,9.2,52,0.00,CLR,,0.00,WeatherDisplay:10.37,2014-10-20 19:45:00,
2014-10-20 15:50:00,83.2,63.7,29.91,SSE,158,7.0,7.0,52,0.00,CLR,,0.00,WeatherDisplay:10.37,2014-10-20 19:50:00,
2014-10-20 15:55:00,83.1,63.7,29.91,ESE,114,9.2,9.2,52,0.00,CLR,,0.00,WeatherDisplay:10.37,2014-10-20 19:55:00,
2014-10-20 16:00:00,83.0,65.2,29.91,ESE,108,5.8,5.8,55,0.00,CLR,,0.00,WeatherDisplay:10.37,2014-10-20 20:00:00,
2014-10-20 16:06:00,83.0,64.1,29.91,SE,140,8.1,8.1,53,0.00,CLR,,0.00,WeatherDisplay:10.37,2014-10-20 20:06:00,
2014-10-20 16:11:00,82.8,64.5,29.91,ESE,104,6.9,6.9,54,0.00,CLR,,0.00,WeatherDisplay:10.37,2014-10-20 20:11:00,
2014-10-20 16:16:00,82.4,64.1,29.91,ESE,113,8.1,8.1,54,0.00,CLR,,0.00,WeatherDisplay:10.37,2014-10-20 20:16:00,
2014-10-20 16:21:00,82.3,65.5,29.91,ENE,77,11.5,11.5,57,0.00,CLR,,0.00,WeatherDisplay:10.37,2014-10-20 20:21:00,
2014-10-20 16:26:00,81.9,64.7,29.91,ESE,107,6.9,6.9,56,0.00,CLR,,0.00,WeatherDisplay:10.37,2014-10-20 20:26:00,
2014-10-20 16:31:00,82.0,66.3,29.91,ESE,102,9.2,9.2,59,0.00,CLR,,0.00,WeatherDisplay:10.37,2014-10-20 20:31:00,
2014-10-20 16:36:00,82.2,66.0,29.91,SSE,153,6.9,6.9,58,0.00,CLR,,0.00,WeatherDisplay:10.37,2014-10-20 20:36:00,
2014-10-20 16:41:00,82.3,66.0,29.90,SE,146,10.4,10.4,58,0.00,CLR,,0.00,WeatherDisplay:10.37,2014-10-20 20:41:00,
2014-10-20 16:46:00,82.3,66.0,29.90,SSE,148,9.2,9.2,58,0.00,CLR,,0.00,WeatherDisplay:10.37,2014-10-20 20:46:00,
2014-10-20 16:51:00,82.5,65.7,29.90,ESE,117,6.9,6.9,57,0.00,CLR,,0.00,WeatherDisplay:10.37,2014-10-20 20:51:00,
2014-10-20 16:56:00,82.3,66.0,29.90,SE,143,9.2,9.2,58,0.00,CLR,,0.00,WeatherDisplay:10.37,2014-10-20 20:56:00,
2014-10-20 17:01:00,82.2,66.0,29.90,SE,131,6.9,6.9,58,0.00,CLR,,0.00,WeatherDisplay:10.37,2014-10-20 21:01:00,
2014-10-20 17:06:00,81.9,66.2,29.91,SE,135,9.2,9.2,59,0.00,CLR,,0.00,WeatherDisplay:10.37,2014-10-20 21:06:00,
2014-10-20 17:11:00,81.4,66.2,29.91,SSE,164,8.1,8.1,60,0.00,CLR,,0.00,WeatherDisplay:10.37,2014-10-20 21:11:00,
2014-10-20 17:16:00,81.1,66.4,29.90,ESE,117,6.9,6.9,61,0.00,CLR,,0.00,WeatherDisplay:10.37,2014-10-20 21:16:00,
2014-10-20 17:21:00,81.1,66.4,29.90,SE,124,5.8,5.8,61,0.00,CLR,,0.00,WeatherDisplay:10.37,2014-10-20 21:21:00,
2014-10-20 17:26:00,81.2,66.9,29.90,SE,142,6.0,6.0,62,0.00,CLR,,0.00,WeatherDisplay:10.37,2014-10-20 21:26:00,
2014-10-20 17:31:00,81.4,66.7,29.90,SE,137,10.4,10.4,61,0.00,CLR,,0.00,WeatherDisplay:10.37,2014-10-20 21:31:00,
2014-10-20 17:36:00,81.3,66.6,29.90,East,89,6.9,6.9,61,0.00,CLR,,0.00,WeatherDisplay:10.37,2014-10-20 21:36:00,
2014-10-20 17:41:00,81.2,66.9,29.90,ESE,117,10.4,10.4,62,0.00,CLR,,0.00,WeatherDisplay:10.37,2014-10-20 21:41:00,
2014-10-20 17:46:00,80.9,67.1,29.89,ESE,112,10.4,10.4,63,0.00,CLR,,0.00,WeatherDisplay:10.37,2014-10-20 21:46:00,
2014-10-20 17:51:00,80.8,67.5,29.90,East,91,8.1,8.1,64,0.00,CLR,,0.00,WeatherDisplay:10.37,2014-10-20 21:51:00,
2014-10-20 17:56:00,80.6,67.3,29.89,ESE,109,5.8,5.8,64,0.00,CLR,,0.00,WeatherDisplay:10.37,2014-10-20 21:56:00,
2014-10-20 18:01:00,80.4,67.6,29.90,East,97,5.8,5.8,65,0.00,CLR,,0.00,WeatherDisplay:10.37,2014-10-20 22:01:00,
2014-10-20 18:06:00,80.3,67.5,29.90,ESE,111,3.5,3.5,65,0.00,CLR,,0.00,WeatherDisplay:10.37,2014-10-20 22:06:00,
2014-10-20 18:11:00,80.1,67.3,29.90,SSE,150,8.0,8.0,65,0.00,CLR,,0.00,WeatherDisplay:10.37,2014-10-20 22:11:00,
2014-10-20 18:16:00,79.9,67.1,29.90,SSE,164,11.5,11.5,65,0.00,CLR,,0.00,WeatherDisplay:10.37,2014-10-20 22:16:00,
2014-10-20 18:21:00,79.6,66.8,29.89,SE,132,6.0,6.0,65,0.00,CLR,,0.00,WeatherDisplay:10.37,2014-10-20 22:21:00,
2014-10-20 18:26:00,79.4,66.6,29.90,SE,139,9.2,9.2,65,0.00,CLR,,0.00,WeatherDisplay:10.37,2014-10-20 22:26:00,
2014-10-20 18:31:00,79.2,66.4,29.89,ESE,123,8.1,8.1,65,0.00,CLR,,0.00,WeatherDisplay:10.37,2014-10-20 22:31:00,
2014-10-20 18:36:00,79.2,66.4,29.90,SE,144,5.8,5.8,65,0.00,CLR,,0.00,WeatherDisplay:10.37,2014-10-20 22:36:00,
2014-10-20 18:41:00,79.1,66.8,29.90,SE,144,5.8,5.8,66,0.00,CLR,,0.00,WeatherDisplay:10.37,2014-10-20 22:41:00,
2014-10-20 18:46:00,78.9,66.6,29.90,ESE,111,4.6,4.6,66,0.00,CLR,,0.00,WeatherDisplay:10.37,2014-10-20 22:46:00,
2014-10-20 18:51:00,78.8,66.9,29.90,ESE,119,4.6,4.6,67,0.00,CLR,,0.00,WeatherDisplay:10.37,2014-10-20 22:51:00,
2014-10-20 18:56:00,78.7,66.8,29.90,ESE,123,4.6,4.6,67,0.00,CLR,,0.00,WeatherDisplay:10.37,2014-10-20 22:56:00,
2014-10-20 19:01:00,78.6,66.7,29.90,SE,136,5.0,5.0,67,0.00,CLR,,0.00,WeatherDisplay:10.37,2014-10-20 23:01:00,
2014-10-20 19:06:00,78.5,67.1,29.90,SE,133,4.6,4.6,68,0.00,CLR,,0.00,WeatherDisplay:10.37,2014-10-20 23:06:00,
2014-10-20 19:11:00,78.5,67.1,29.91,SSE,158,3.5,3.5,68,0.00,CLR,,0.00,WeatherDisplay:10.37,2014-10-20 23:11:00,
2014-10-20 19:16:00,78.4,67.0,29.91,SE,141,3.5,3.5,68,0.00,CLR,,0.00,WeatherDisplay:10.37,2014-10-20 23:16:00,
2014-10-20 19:21:00,78.4,67.0,29.91,SE,141,4.6,4.6,68,0.00,CLR,,0.00,WeatherDisplay:10.37,2014-10-20 23:21:00,
2014-10-20 19:26:00,78.4,67.0,29.91,SE,143,3.5,3.5,68,0.00,CLR,,0.00,WeatherDisplay:10.37,2014-10-20 23:26:00,
2014-10-20 19:31:00,78.4,67.0,29.91,SSE,165,4.6,4.6,68,0.00,CLR,,0.00,WeatherDisplay:10.37,2014-10-20 23:31:00,
2014-10-20 19:36:00,78.4,67.0,29.91,SE,131,3.0,3.0,68,0.00,CLR,,0.00,WeatherDisplay:10.37,2014-10-20 23:36:00,
2014-10-20 19:41:00,78.4,67.0,29.92,SSE,152,4.0,4.0,68,0.00,CLR,,0.00,WeatherDisplay:10.37,2014-10-20 23:41:00,
2014-10-20 19:46:00,78.6,67.2,29.92,SSE,150,5.0,5.0,68,0.00,CLR,,0.00,WeatherDisplay:10.37,2014-10-20 23:46:00,
2014-10-20 19:51:00,78.7,67.2,29.92,SE,146,5.0,5.0,68,0.00,CLR,,0.00,WeatherDisplay:10.37,2014-10-20 23:51:00,
2014-10-20 19:56:00,78.8,67.3,29.92,SE,142,3.5,3.5,68,0.00,CLR,,0.00,WeatherDisplay:10.37,2014-10-20 23:56:00,
2014-10-20 20:01:00,78.9,67.4,29.92,SE,138,3.5,3.5,68,0.00,CLR,,0.00,WeatherDisplay:10.37,2014-10-21 00:01:00,
2014-10-20 20:06:00,78.9,67.4,29.92,SE,131,4.6,4.6,68,0.00,CLR,,0.00,WeatherDisplay:10.37,2014-10-21 00:06:00,
2014-10-20 20:11:00,78.9,67.4,29.92,SE,132,5.8,5.8,68,0.00,CLR,,0.00,WeatherDisplay:10.37,2014-10-21 00:11:00,
2014-10-20 20:16:00,79.0,67.5,29.92,SSE,149,4.6,4.6,68,0.00,CLR,,0.00,WeatherDisplay:10.37,2014-10-21 00:16:00,
2014-10-20 20:21:00,79.1,67.6,29.92,SE,133,5.8,5.8,68,0.00,CLR,,0.00,WeatherDisplay:10.37,2014-10-21 00:21:00,
2014-10-20 20:26:00,79.2,67.3,29.92,SE,141,5.8,5.8,67,0.00,CLR,,0.00,WeatherDisplay:10.37,2014-10-21 00:26:00,
2014-10-20 20:31:00,79.2,67.7,29.92,SSE,155,3.5,3.5,68,0.00,CLR,,0.00,WeatherDisplay:10.37,2014-10-21 00:31:00,
2014-10-20 20:36:00,79.2,67.3,29.92,SE,145,3.5,3.5,67,0.00,CLR,,0.00,WeatherDisplay:10.37,2014-10-21 00:36:00,
2014-10-20 20:41:00,79.2,67.3,29.93,SSE,152,4.6,4.6,67,0.00,CLR,,0.00,WeatherDisplay:10.37,2014-10-21 00:41:00,
2014-10-20 20:46:00,79.1,67.2,29.92,SE,143,2.3,2.3,67,0.00,CLR,,0.00,WeatherDisplay:10.37,2014-10-21 00:46:00,
2014-10-20 20:51:00,79.1,67.2,29.92,SE,139,3.5,3.5,67,0.00,CLR,,0.00,WeatherDisplay:10.37,2014-10-21 00:51:00,